Location: Shenandoah County Park
(38.9356°N, 78.4524°W)
Time: 11:43:19
(UTC-05:00)

Envisat - Pass Details

Date: 04 October 2022
Orbit: 763 x 765 km, 98.2° (Epoch: 29 November)

Event Time Altitude Azimuth Distance (km) Brightness Sun altitude
Rises 04:24:09 0° 30° (NNE) 3,238 7.0 -32.9°
Reaches altitude 10° 04:27:12 10° 49° (NE) 2,306 6.3 -32.3°
Maximum altitude 04:30:39 18° 92° (E) 1,799 5.5 -31.7°
Drops below altitude 10° 04:34:05 10° 136° (SE) 2,294 5.7 -31.1°
Sets 04:37:04 0° 154° (SSE) 3,215 6.3 -30.5°
